When you browse on this site, cookies collect data to enhance your experience and personalize the content and advertising you see.
Visit our Privacy Policy to learn more. By continuing to use the site, you agree to this use of cookies and data.
  • In Czech Republic
  • List of Countries
  • For 7 days
  • Water Temperature
  • Satellite Maps
  • Weather Map
  • Weather Widgets
  • user-avatar
    Login

    Hourly Weather Wekiva Springs

    Today, 18 April, Thursday

    Time Temperature Precipitation Wind Pressure Humidity
    00:00 +23°C° 0 mm 2 mps 761 mmHg 73%
    01:00 +23°C° 0 mm 1 mps 761 mmHg 74%
    02:00 +21°C° 0 mm 2 mps 761 mmHg 76%
    03:00 +21°C° 0 mm 2 mps 760 mmHg 77%
    04:00 +21°C° 0 mm 2 mps 760 mmHg 79%
    05:00 +21°C° 0 mm 2 mps 760 mmHg 80%
    06:00 +21°C° 0 mm 2 mps 760 mmHg 81%
    07:00 +21°C° 0 mm 2 mps 760 mmHg 82%
    08:00 +24°C° 0 mm 3 mps 760 mmHg 71%
    09:00 +26°C° 0 mm 3 mps 760 mmHg 61%
    10:00 +29°C° 0 mm 4 mps 760 mmHg 50%
    11:00 +30°C° 0 mm 4 mps 760 mmHg 47%
    12:00 +32°C° 0 mm 4 mps 760 mmHg 45%
    13:00 +34°C° 0 mm 4 mps 760 mmHg 42%
    14:00 +34°C° 0 mm 4 mps 759 mmHg 44%
    15:00 +34°C° 0 mm 5 mps 758 mmHg 45%
    16:00 +34°C° 0 mm 5 mps 758 mmHg 46%
    17:00 +32°C° 0.1 mm 5 mps 757 mmHg 54%
    18:00 +29°C° 0.1 mm 5 mps 757 mmHg 62%
    19:00 +28°C° 0.1 mm 5 mps 757 mmHg 70%
    20:00 +27°C° 0.5 mm 5 mps 757 mmHg 73%
    21:00 +27°C° 0.5 mm 4 mps 758 mmHg 76%
    22:00 +26°C° 0.5 mm 4 mps 758 mmHg 79%
    23:00 +26°C° 0.3 mm 4 mps 757 mmHg 81%

    Tomorrow, 19 April, Friday

    Time Temperature Precipitation Wind Pressure Humidity
    00:00 +26°C° 0.3 mm 4 mps 757 mmHg 82%
    01:00 +25°C° 0.3 mm 4 mps 757 mmHg 84%
    02:00 +25°C° 0 mm 4 mps 756 mmHg 84%
    03:00 +25°C° 0 mm 5 mps 756 mmHg 85%
    04:00 +23°C° 0 mm 5 mps 756 mmHg 85%
    05:00 +24°C° 0 mm 6 mps 755 mmHg 83%
    06:00 +24°C° 0 mm 6 mps 755 mmHg 81%
    07:00 +24°C° 0 mm 7 mps 755 mmHg 78%
    08:00 +27°C° 0.1 mm 7 mps 755 mmHg 72%
    09:00 +28°C° 0.1 mm 8 mps 755 mmHg 65%
    10:00 +31°C° 0.1 mm 8 mps 755 mmHg 59%
    11:00 +31°C° 0.5 mm 8 mps 755 mmHg 57%
    12:00 +31°C° 0.5 mm 8 mps 754 mmHg 55%
    13:00 +30°C° 0.5 mm 7 mps 753 mmHg 53%
    14:00 +29°C° 2.6 mm 8 mps 753 mmHg 60%
    15:00 +28°C° 2.6 mm 8 mps 752 mmHg 66%
    16:00 +27°C° 2.6 mm 9 mps 752 mmHg 72%
    17:00 +24°C° 5.3 mm 8 mps 752 mmHg 72%
    18:00 +22°C° 5.3 mm 7 mps 753 mmHg 73%
    19:00 +20°C° 5.3 mm 6 mps 754 mmHg 73%
    20:00 +20°C° 0 mm 6 mps 755 mmHg 71%
    21:00 +19°C° 0 mm 5 mps 756 mmHg 68%
    22:00 +18°C° 0 mm 4 mps 757 mmHg 66%
    23:00 +18°C° 0 mm 4 mps 757 mmHg 65%

    Day after tomorrow, 20 April, Saturday

    Time Temperature Precipitation Wind Pressure Humidity
    00:00 +18°C° 0 mm 4 mps 757 mmHg 65%
    01:00 +17°C° 0 mm 3 mps 757 mmHg 64%
    02:00 +17°C° 0 mm 3 mps 757 mmHg 64%
    03:00 +18°C° 0 mm 3 mps 757 mmHg 64%
    04:00 +18°C° 0 mm 3 mps 757 mmHg 64%
    05:00 +17°C° 0 mm 3 mps 757 mmHg 65%
    06:00 +17°C° 0 mm 3 mps 757 mmHg 66%
    07:00 +17°C° 0 mm 2 mps 758 mmHg 67%
    08:00 +18°C° 0 mm 4 mps 758 mmHg 61%
    09:00 +20°C° 0 mm 5 mps 759 mmHg 56%
    10:00 +22°C° 0 mm 6 mps 759 mmHg 51%
    11:00 +22°C° 0 mm 7 mps 759 mmHg 47%
    12:00 +22°C° 0 mm 7 mps 759 mmHg 44%
    13:00 +23°C° 0 mm 7 mps 759 mmHg 41%
    14:00 +23°C° 0 mm 7 mps 759 mmHg 41%
    15:00 +23°C° 0 mm 7 mps 759 mmHg 40%
    16:00 +23°C° 0 mm 6 mps 758 mmHg 39%
    17:00 +21°C° 0 mm 5 mps 759 mmHg 43%
    18:00 +20°C° 0 mm 4 mps 759 mmHg 47%
    19:00 +19°C° 0 mm 3 mps 760 mmHg 51%
    20:00 +18°C° 0 mm 3 mps 760 mmHg 54%
    21:00 +18°C° 0 mm 2 mps 761 mmHg 57%
    22:00 +17°C° 0 mm 2 mps 761 mmHg 60%
    23:00 +17°C° 0 mm 2 mps 762 mmHg 62%

    21 April, Sunday

    Time Temperature Precipitation Wind Pressure Humidity
    00:00 +16°C° 0 mm 1 mps 762 mmHg 65%
    01:00 +16°C° 0 mm 1 mps 762 mmHg 67%
    02:00 +16°C° 0 mm 1 mps 762 mmHg 69%
    03:00 +15°C° 0 mm 1 mps 762 mmHg 70%
    04:00 +15°C° 0 mm 1 mps 762 mmHg 71%
    05:00 +15°C° 0 mm 1 mps 763 mmHg 68%
    06:00 +15°C° 0 mm 1 mps 763 mmHg 65%
    07:00 +15°C° 0 mm 1 mps 764 mmHg 63%
    08:00 +17°C° 0 mm 2 mps 764 mmHg 51%
    09:00 +20°C° 0 mm 2 mps 764 mmHg 39%
    10:00 +22°C° 0 mm 3 mps 765 mmHg 27%
    11:00 +24°C° 0 mm 3 mps 765 mmHg 26%
    12:00 +25°C° 0 mm 2 mps 764 mmHg 24%
    13:00 +26°C° 0 mm 2 mps 764 mmHg 22%
    14:00 +27°C° 0 mm 2 mps 764 mmHg 22%
    15:00 +27°C° 0 mm 2 mps 763 mmHg 23%
    16:00 +27°C° 0 mm 2 mps 763 mmHg 23%
    17:00 +26°C° 0 mm 2 mps 763 mmHg 28%
    18:00 +24°C° 0 mm 2 mps 764 mmHg 33%
    19:00 +21°C° 0 mm 2 mps 764 mmHg 38%
    20:00 +20°C° 0 mm 2 mps 765 mmHg 40%
    21:00 +19°C° 0 mm 2 mps 765 mmHg 43%
    22:00 +18°C° 0 mm 2 mps 765 mmHg 46%
    23:00 +19°C° 0 mm 1 mps 765 mmHg 47%

    22 April, Monday

    Time Temperature Precipitation Wind Pressure Humidity
    00:00 +18°C° 0 mm 1 mps 765 mmHg 49%
    01:00 +16°C° 0 mm 0 mps 765 mmHg 51%
    02:00 +15°C° 0 mm 0 mps 765 mmHg 52%
    03:00 +15°C° 0 mm 0 mps 765 mmHg 53%
    04:00 +15°C° 0 mm 0 mps 764 mmHg 54%
    05:00 +16°C° 0 mm 1 mps 765 mmHg 54%
    06:00 +18°C° 0 mm 1 mps 765 mmHg 55%
    07:00 +18°C° 0 mm 1 mps 765 mmHg 55%
    08:00 +20°C° 0 mm 2 mps 765 mmHg 49%
    09:00 +23°C° 0 mm 2 mps 766 mmHg 42%
    10:00 +26°C° 0 mm 3 mps 766 mmHg 36%
    11:00 +27°C° 0 mm 4 mps 765 mmHg 35%
    12:00 +28°C° 0 mm 4 mps 765 mmHg 34%
    13:00 +29°C° 0 mm 4 mps 765 mmHg 33%
    14:00 +28°C° 0 mm 5 mps 764 mmHg 35%
    15:00 +28°C° 0 mm 5 mps 764 mmHg 37%
    16:00 +28°C° 0 mm 5 mps 764 mmHg 39%
    17:00 +26°C° 0 mm 5 mps 764 mmHg 45%
    18:00 +25°C° 0 mm 4 mps 764 mmHg 51%
    19:00 +22°C° 0 mm 3 mps 764 mmHg 56%
    20:00 +21°C° 0 mm 3 mps 765 mmHg 60%
    21:00 +21°C° 0 mm 3 mps 765 mmHg 64%
    22:00 +20°C° 0 mm 2 mps 765 mmHg 67%
    23:00 +20°C° 0 mm 2 mps 765 mmHg 70%

    23 April, Tuesday

    Time Temperature Precipitation Wind Pressure Humidity
    00:00 +19°C° 0 mm 2 mps 765 mmHg 73%
    01:00 +20°C° 0 mm 1 mps 764 mmHg 76%
    02:00 +20°C° 0 mm 1 mps 764 mmHg 77%
    03:00 +20°C° 0 mm 1 mps 764 mmHg 79%
    04:00 +19°C° 0 mm 1 mps 764 mmHg 81%
    05:00 +20°C° 0 mm 1 mps 764 mmHg 80%
    06:00 +19°C° 0 mm 2 mps 764 mmHg 80%
    07:00 +20°C° 0 mm 2 mps 764 mmHg 79%
    08:00 +22°C° 0 mm 3 mps 765 mmHg 70%
    09:00 +25°C° 0 mm 4 mps 765 mmHg 61%
    10:00 +27°C° 0 mm 5 mps 765 mmHg 52%
    11:00 +28°C° 0 mm 5 mps 764 mmHg 49%
    12:00 +28°C° 0 mm 5 mps 764 mmHg 47%
    13:00 +29°C° 0 mm 5 mps 764 mmHg 45%
    14:00 +29°C° 0 mm 5 mps 763 mmHg 45%
    15:00 +29°C° 0 mm 5 mps 763 mmHg 45%
    16:00 +29°C° 0 mm 5 mps 763 mmHg 45%
    17:00 +27°C° 0 mm 4 mps 763 mmHg 50%
    18:00 +26°C° 0 mm 4 mps 763 mmHg 55%
    19:00 +24°C° 0 mm 3 mps 763 mmHg 60%
    20:00 +24°C° 0 mm 3 mps 764 mmHg 64%
    21:00 +23°C° 0 mm 2 mps 764 mmHg 68%
    22:00 +21°C° 0 mm 2 mps 764 mmHg 72%
    23:00 +21°C° 0 mm 2 mps 764 mmHg 75%
    Show more